Parsons, KS

4:48 AM CST on December 06, 2019 (GMT -0600)
Tri-City

Weather History for KPPF - November, 2019

Change the Weather History Date:

Friday, November 22, 2019

  Actual Average Record
Temperature  
Mean Temperature 35 °F -  
Max Temperature 37 °F 55 °F 77 °F (2010)
Min Temperature 33 °F 33 °F 17 °F (2007)
Degree Days  
Heating Degree Days 30    
Moisture  
Dew Point 32 °F    
Average Humidity 85    
Maximum Humidity 100    
Minimum Humidity 73    
Precipitation  
Precipitation 0.05 in - - ()
Sea Level Pressure  
Sea Level Pressure 30.14 in    
Wind  
Wind Speed 7 mph ()    
Max Wind Speed 12 mph    
Max Gust Speed 21 mph    
Visibility 9.5 miles    
Events Rain    
Averages and records for this station are not official NWS values.
T = Trace of Precipitation, MM = Missing Value Source: Averaged Metar Reports

Daily Weather History Graph

Daily Weather History Graph

Search for Another Location

Airport or City:

Astronomy

Nov. 22, 2019 Rise Set
Actual Time 7:08 AM CST 5:07 PM CST
Civil Twilight 6:40 AM CST 5:35 PM CST
Nautical Twilight 6:08 AM CST 6:07 PM CST
Astronomical Twilight 5:37 AM CST 6:38 PM CST
Moon 2:23 AM CST (11/22) 3:01 PM CST (11/22)
Length of Visible Light 10h 55m
Length of Day
9h 59m
Waning Crescent, 19% of the Moon is Illuminated
Nov 22
Waning Crescent
Nov 26
New
Dec 4
First Quarter
Dec 11
Full
Dec 18
Last Quarter

Hourly Weather History & Observations

Time (CST) Temp. Windchill Dew Point Humidity Pressure Visibility Wind Dir Wind Speed Gust Speed Precip Events Conditions
12:20 AM 37.9 °F 30.5 °F 35.1 °F 89% 30.16 in 10.0 mi North 11.5 mph 18.4 mph N/A   Overcast
12:52 AM 37.9 °F 30.5 °F 34.0 °F 86% 30.17 in 10.0 mi North 11.5 mph 19.6 mph N/A   Overcast
1:52 AM 37.9 °F 32.1 °F 35.1 °F 89% 30.17 in 10.0 mi NNE 8.1 mph - N/A   Overcast
2:52 AM 37.9 °F 33.5 °F 35.1 °F 89% 30.17 in 10.0 mi NNE 5.8 mph - N/A   Overcast
3:48 AM 37.4 °F 30.8 °F 33.8 °F 87% 30.13 in 10.0 mi NNE 9.2 mph - 0.00 in   Overcast
5:52 AM 37.9 °F 34.4 °F 33.1 °F 83% 30.19 in 10.0 mi NNE 4.6 mph - N/A   Overcast
6:01 AM 37.9 °F 33.5 °F 33.1 °F 83% 30.20 in 10.0 mi NNE 5.8 mph - N/A   Overcast
6:52 AM 37.0 °F 33.3 °F 34.0 °F 89% 30.20 in 10.0 mi NNE 4.6 mph - 0.01 in Rain Light Rain
7:14 AM 37.0 °F 32.4 °F 34.0 °F 89% 30.19 in 10.0 mi NNE 5.8 mph - 0.00 in Rain Light Rain
7:52 AM 37.0 °F 31.0 °F 35.1 °F 93% 30.19 in 6.0 mi NNE 8.1 mph - 0.04 in Rain Light Rain
8:52 AM 37.0 °F 32.4 °F 35.1 °F 93% 30.14 in 10.0 mi NNE 5.8 mph 20.7 mph 0.00 in   Overcast
9:06 AM 37.9 °F 30.9 °F 35.1 °F 89% 30.16 in 10.0 mi NNE 10.4 mph 19.6 mph N/A   Overcast
10:52 AM 37.0 °F 30.4 °F 33.1 °F 86% 30.20 in 10.0 mi North 9.2 mph - N/A   Overcast
11:31 AM 37.0 °F 31.0 °F 33.1 °F 86% 30.18 in 10.0 mi North 8.1 mph - N/A   Overcast
11:52 AM 36.0 °F 30.3 °F 33.1 °F 89% 30.19 in 10.0 mi NNE 6.9 mph - N/A   Overcast
12:52 PM 37.0 °F 30.4 °F 32.0 °F 82% 30.16 in 10.0 mi NNE 9.2 mph - N/A   Overcast
1:18 PM 37.0 °F 31.6 °F 32.0 °F 82% 30.12 in 10.0 mi NNE 6.9 mph 18.4 mph N/A   Overcast
1:50 PM 37.4 °F 31.4 °F 30.2 °F 75% 30.12 in 10.0 mi NNE 8.1 mph - N/A   Overcast
1:52 PM 37.0 °F 31.0 °F 30.9 °F 79% 30.13 in 10.0 mi North 8.1 mph - N/A   Overcast
2:52 PM 36.0 °F 29.0 °F 30.0 °F 79% 30.12 in 10.0 mi NNE 9.2 mph - N/A   Overcast
3:52 PM 37.0 °F 33.3 °F 28.9 °F 73% 30.12 in 10.0 mi NE 4.6 mph - N/A   Overcast
4:52 PM 36.0 °F 33.3 °F 28.9 °F 76% 30.11 in 10.0 mi NE 3.5 mph - N/A   Overcast
5:52 PM 36.0 °F 33.3 °F 28.9 °F 76% 30.12 in 10.0 mi NNE 3.5 mph - N/A   Overcast
6:52 PM 36.0 °F - 30.0 °F 79% 30.11 in 10.0 mi Calm Calm - N/A   Overcast
7:52 PM 36.0 °F 33.3 °F 30.0 °F 79% 30.11 in 10.0 mi North 3.5 mph - N/A   Overcast
8:52 PM 36.0 °F 32.1 °F 28.9 °F 76% 30.11 in 10.0 mi North 4.6 mph - N/A   Overcast
9:52 PM 36.0 °F 31.1 °F 30.9 °F 82% 30.11 in 10.0 mi North 5.8 mph - N/A   Overcast
10:49 PM 33.8 °F 30.8 °F 33.8 °F 100% 30.08 in 6.0 mi North 3.5 mph - N/A   Overcast
10:52 PM 34.0 °F 31.0 °F 33.1 °F 96% 30.09 in 7.0 mi NNW 3.5 mph - N/A   Overcast
11:30 PM 34.0 °F 31.0 °F 33.1 °F 96% 30.07 in 6.0 mi NW 3.5 mph - N/A   Overcast
11:52 PM 34.0 °F 31.0 °F 33.1 °F 96% 30.09 in 8.0 mi NW 3.5 mph - N/A   Overcast